Akron, OH

10:07 PM EST on January 17, 2018 (GMT -0500)
Akron Fulton International

Weather History for KAKR - July, 2013

Change the Weather History Date:

Sunday, July 21, 2013

  Actual Average (KCAK) Record (KCAK)
Temperature  
Mean Temperature 75 °F -  
Max Temperature 82 °F 82 °F 100 °F (1930)
Min Temperature 69 °F 62 °F 45 °F (1890)
Cooling Degree Days 10    
Growing Degree Days 25 (Base 50)    
Moisture  
Dew Point 68 °F    
Average Humidity 82    
Maximum Humidity 100    
Minimum Humidity 60    
Precipitation  
Precipitation 0.00 in - - ()
Sea Level Pressure  
Sea Level Pressure 29.95 in    
Wind  
Wind Speed 2 mph (ESE)    
Max Wind Speed 15 mph    
Max Gust Speed 18 mph    
Visibility 8 miles    
Events Rain    
Averages and records for this station are not official NWS values.
T = Trace of Precipitation, MM = Missing Value Source: NWS Daily Summary

Daily Weather History Graph

Daily Weather History Graph

Search for Another Location

Airport or City:

Trip Planner

Search our weather history database for the weather conditions in past years. The results will help you decide how hot, cold, wet, or windy it might be!

Date:

Astronomy

Jul. 21, 2013 Rise Set
Actual Time 6:11 AM EDT 8:52 PM EDT
Civil Twilight 5:39 AM EDT 9:24 PM EDT
Nautical Twilight 4:59 AM EDT 10:04 PM EDT
Astronomical Twilight 4:14 AM EDT 10:49 PM EDT
Moon 7:48 PM EDT (7/21) 4:56 AM EDT (7/21)
Length of Visible Light 15h 44m
Length of Day
14h 40m
Waxing Gibbous, 98% of the Moon is Illuminated
Jul 21
Waxing Gibbous
Jul 22
Full
Jul 29
Last Quarter
Aug 6
New
Aug 14
First Quarter

Hourly Weather History & Observations

Time (EDT) Temp. Heat Index Dew Point Humidity Pressure Visibility Wind Dir Wind Speed Gust Speed Precip Events Conditions
12:37 AM 71.6 °F - 69.8 °F 94% 29.93 in 10.0 mi Calm Calm - N/A   Scattered Clouds
12:54 AM 72.0 °F - 69.1 °F 91% 29.91 in 10.0 mi South 3.5 mph - N/A   Mostly Cloudy
1:34 AM 71.6 °F - 69.8 °F 94% 29.93 in 10.0 mi Calm Calm - N/A   Mostly Cloudy
1:54 AM 71.1 °F - 68.0 °F 90% 29.91 in 10.0 mi SSW 3.5 mph - N/A   Mostly Cloudy
2:07 AM 69.8 °F - 69.8 °F 100% 29.92 in 9.0 mi Calm Calm - N/A   Scattered Clouds
2:54 AM 69.1 °F - 68.0 °F 96% 29.90 in 6.0 mi Calm Calm - N/A   Clear
3:09 AM 69.8 °F - 68.0 °F 94% 29.93 in 7.0 mi Calm Calm - N/A   Scattered Clouds
3:18 AM 69.8 °F - 69.8 °F 100% 29.93 in 7.0 mi South 3.5 mph - N/A   Mostly Cloudy
3:54 AM 70.0 °F - 69.1 °F 97% 29.91 in 6.0 mi Calm Calm - N/A   Overcast
4:54 AM 70.0 °F - 68.0 °F 93% 29.91 in 4.0 mi Calm Calm - N/A   Scattered Clouds
5:13 AM 69.8 °F - 68.0 °F 94% 29.94 in 4.0 mi Calm Calm - N/A   Mostly Cloudy
5:54 AM 71.1 °F - 69.1 °F 93% 29.93 in 5.0 mi Calm Calm - N/A   Overcast
6:54 AM 71.1 °F - 69.1 °F 93% 29.94 in 4.0 mi Calm Calm - N/A   Overcast
7:54 AM 72.0 °F - 69.1 °F 91% 29.95 in 4.0 mi Calm Calm - N/A   Mostly Cloudy
8:04 AM 71.6 °F - 69.8 °F 94% 29.97 in 4.0 mi Calm Calm - N/A   Scattered Clouds
8:15 AM 71.6 °F - 69.8 °F 94% 29.97 in 5.0 mi SSE 4.6 mph - N/A   Mostly Cloudy
8:39 AM 73.4 °F - 69.8 °F 88% 29.98 in 5.0 mi Calm Calm - N/A   Scattered Clouds
8:54 AM 73.9 °F - 68.0 °F 82% 29.96 in 6.0 mi Calm Calm - N/A   Haze
8:59 AM 73.4 °F - 68.0 °F 83% 29.98 in 6.0 mi Calm Calm - N/A   Haze
9:08 AM 75.2 °F - 69.8 °F 83% 29.97 in 6.0 mi Calm Calm - N/A   Haze
9:15 AM 75.2 °F - 69.8 °F 83% 29.97 in 6.0 mi SE 4.6 mph - N/A   Haze
9:54 AM 77.0 °F - 69.1 °F 76% 29.96 in 7.0 mi Calm Calm - N/A   Mostly Cloudy
10:18 AM 75.2 °F - 68.0 °F 78% 29.98 in 7.0 mi South 4.6 mph - N/A   Scattered Clouds
10:31 AM 75.2 °F - 68.0 °F 78% 29.98 in 7.0 mi Calm Calm - N/A   Mostly Cloudy
10:54 AM 77.0 °F - 69.1 °F 76% 29.96 in 8.0 mi Calm Calm - N/A   Mostly Cloudy
11:02 AM 77.0 °F - 69.8 °F 78% 29.99 in 8.0 mi Calm Calm - N/A   Scattered Clouds
11:54 AM 78.1 °F - 66.9 °F 68% 29.97 in 10.0 mi Calm Calm - N/A   Mostly Cloudy
12:54 PM 79.0 °F - 66.0 °F 64% 29.97 in 10.0 mi Calm Calm - N/A   Overcast
1:54 PM 81.0 °F 83.0 °F 66.0 °F 60% 29.95 in 10.0 mi Calm Calm - N/A   Mostly Cloudy
2:54 PM 73.9 °F - 66.0 °F 76% 29.97 in 10.0 mi South 15.0 mph 18.4 mph 0.00 in Rain Light Rain
3:54 PM 72.0 °F - 66.0 °F 81% 29.96 in 10.0 mi SW 3.5 mph - 0.00 in   Partly Cloudy
4:54 PM 79.0 °F - 64.9 °F 62% 29.94 in 10.0 mi Calm Calm - N/A   Clear
5:54 PM 80.1 °F 81.9 °F 64.9 °F 60% 29.92 in 10.0 mi NE 5.8 mph - N/A   Scattered Clouds
6:54 PM 81.0 °F 83.0 °F 66.0 °F 60% 29.93 in 10.0 mi North 6.9 mph - N/A   Partly Cloudy
7:54 PM 77.0 °F - 64.9 °F 66% 29.92 in 10.0 mi NNE 3.5 mph - N/A   Clear
8:54 PM 75.0 °F - 64.0 °F 69% 29.93 in 10.0 mi NNE 6.9 mph - N/A   Clear
9:54 PM 73.0 °F - 64.9 °F 76% 29.95 in 10.0 mi ENE 6.9 mph - N/A   Clear
10:54 PM 72.0 °F - 64.0 °F 76% 29.97 in 10.0 mi NE 5.8 mph - N/A   Clear
11:54 PM 70.0 °F - 64.0 °F 81% 29.96 in 10.0 mi ENE 3.5 mph - N/A   Clear